EWG6SW LEIB-EDDL

Flight info

Callsign EWG6SW
Flight time N/A
Altitude 34000
Route KABRE DCT ELTAN DCT MHN/N0451F360 DCT MEROS DCT LAPIT DCT CHELY DCT LUMAS DCT SOSUR DCT SECON DCT ODIXU DCT MAXIR DCT LUSOL DCT BODRU DCT OKTET DCT IRMAR DCT KINES DCT VANAS DCT MOBLO DCT UBIMA DCT GILIR DCT PENDU DCT IXILU DCT GIVOR DCT SORAL DCT IBERA/N0462F320 DCT DIK/N0456F350 N853 ARCKY/N0464F310 T853 NVO T857 BIKMU BIKMU1A
Aircraft A319/M-SDE3FGHIRWY/LB1

Departure

Time 2026-05-01 11:10
Airport Ibiza Airport (LEIB)

Arrival

Time N/A
Airport Düsseldorf Airport (EDDL)
Time Latitude Longitude Altitude Speed Heading
2026-05-01 10:55 38.87565 1.36917 9 ft 0 kts 332°
2026-05-01 11:02 38.87548 1.36928 11 ft 4 kts 332°
2026-05-01 11:02 38.87527 1.36942 10 ft 2 kts 333°
2026-05-01 11:02 38.87510 1.36958 8 ft 4 kts 282°
2026-05-01 11:03 38.87514 1.36985 8 ft 4 kts 242°
2026-05-01 11:03 38.87519 1.36996 8 ft 0 kts 242°
2026-05-01 11:04 38.87517 1.36993 8 ft 2 kts 242°
2026-05-01 11:05 38.87507 1.36969 8 ft 4 kts 242°
2026-05-01 11:05 38.87490 1.36926 9 ft 6 kts 242°
2026-05-01 11:05 38.87468 1.36874 8 ft 7 kts 242°
2026-05-01 11:05 38.87443 1.36814 9 ft 8 kts 242°
2026-05-01 11:06 38.87395 1.36797 8 ft 8 kts 153°
2026-05-01 11:06 38.87339 1.36838 9 ft 10 kts 151°
2026-05-01 11:06 38.87275 1.36845 10 ft 11 kts 229°
2026-05-01 11:07 38.87197 1.36647 8 ft 14 kts 243°
2026-05-01 11:07 38.87152 1.36534 8 ft 15 kts 242°
2026-05-01 11:07 38.87101 1.36413 8 ft 16 kts 242°
2026-05-01 11:07 38.87048 1.36285 9 ft 17 kts 242°
2026-05-01 11:08 38.86991 1.36149 8 ft 18 kts 242°
2026-05-01 11:08 38.86931 1.36002 9 ft 19 kts 242°
2026-05-01 11:08 38.86818 1.35821 8 ft 8 kts 165°
2026-05-01 11:09 38.86757 1.35861 6 ft 12 kts 152°
2026-05-01 11:09 38.86721 1.35951 6 ft 12 kts 63°
2026-05-01 11:09 38.86723 1.35956 8 ft 0 kts 60°
2026-05-01 11:10 38.86825 1.36202 6 ft 61 kts 62°
2026-05-01 11:10 38.87117 1.36909 12 ft 117 kts 62°
2026-05-01 11:10 38.87565 1.38013 144 ft 150 kts 63°
2026-05-01 11:10 38.88045 1.39114 859 ft 137 kts 62°
2026-05-01 11:11 38.88391 1.40307 1226 ft 153 kts 75°
2026-05-01 11:11 38.88629 1.41726 1501 ft 176 kts 75°
2026-05-01 11:11 38.88916 1.43366 1800 ft 201 kts 75°
2026-05-01 11:11 38.89238 1.45188 2416 ft 212 kts 76°
2026-05-01 11:12 38.89569 1.47049 3243 ft 215 kts 75°
2026-05-01 11:12 38.89908 1.48941 4045 ft 219 kts 75°
2026-05-01 11:12 38.90253 1.50867 4855 ft 223 kts 75°
2026-05-01 11:12 38.90603 1.52822 5638 ft 226 kts 76°
2026-05-01 11:13 38.90788 1.54846 6367 ft 235 kts 91°
2026-05-01 11:13 38.90602 1.57040 6746 ft 259 kts 98°
2026-05-01 11:13 38.90363 1.59438 7270 ft 277 kts 97°
2026-05-01 11:13 38.90124 1.61891 8030 ft 283 kts 97°
2026-05-01 11:14 38.89882 1.64428 8847 ft 289 kts 98°
2026-05-01 11:14 38.89405 1.66962 9629 ft 295 kts 111°
2026-05-01 11:14 38.88559 1.69385 10407 ft 300 kts 116°
2026-05-01 11:14 38.87642 1.71905 10696 ft 323 kts 116°
2026-05-01 11:15 38.86650 1.74617 10891 ft 346 kts 115°
2026-05-01 11:15 38.85619 1.77443 11305 ft 358 kts 115°
2026-05-01 11:15 38.84553 1.80368 11913 ft 364 kts 116°
2026-05-01 11:15 38.83470 1.83344 12542 ft 369 kts 115°
2026-05-01 11:16 38.82384 1.86356 13207 ft 374 kts 114°
2026-05-01 11:16 38.81609 1.89551 13867 ft 378 kts 101°
2026-05-01 11:16 38.81373 1.92926 14460 ft 382 kts 89°
2026-05-01 11:16 38.81707 1.96317 15083 ft 385 kts 77°
2026-05-01 11:17 38.82576 1.99529 15700 ft 388 kts 67°
2026-05-01 11:17 38.83656 2.02718 16283 ft 392 kts 67°
2026-05-01 11:17 38.84742 2.05934 16893 ft 394 kts 67°
2026-05-01 11:17 38.85833 2.09178 17474 ft 398 kts 68°
2026-05-01 11:18 38.86930 2.12459 18079 ft 401 kts 68°
2026-05-01 11:18 38.88032 2.15761 18653 ft 404 kts 68°
2026-05-01 11:18 38.89146 2.19106 19170 ft 408 kts 68°
2026-05-01 11:18 38.90264 2.22468 19690 ft 411 kts 68°
2026-05-01 11:19 38.91391 2.25859 20191 ft 414 kts 68°
2026-05-01 11:19 38.92526 2.29278 20684 ft 418 kts 68°
2026-05-01 11:19 38.93656 2.32688 21107 ft 422 kts 67°
2026-05-01 11:19 38.94815 2.36177 21574 ft 425 kts 67°
2026-05-01 11:20 38.95984 2.39690 22006 ft 429 kts 67°
2026-05-01 11:20 38.97159 2.43224 22463 ft 431 kts 67°
2026-05-01 11:20 38.98343 2.46790 22889 ft 435 kts 67°
2026-05-01 11:20 38.99532 2.50385 23327 ft 437 kts 68°
2026-05-01 11:21 39.00725 2.54011 23735 ft 440 kts 68°
2026-05-01 11:21 39.01906 2.57606 24088 ft 443 kts 68°
2026-05-01 11:21 39.03113 2.61285 24438 ft 446 kts 68°
2026-05-01 11:21 39.04323 2.64972 24790 ft 448 kts 68°
2026-05-01 11:22 39.05538 2.68675 25137 ft 450 kts 67°
2026-05-01 11:22 39.06761 2.72401 25462 ft 453 kts 67°
2026-05-01 11:22 39.07991 2.76152 25797 ft 456 kts 67°
2026-05-01 11:22 39.09213 2.79886 26136 ft 458 kts 67°
2026-05-01 11:23 39.10464 2.83701 26457 ft 461 kts 67°
2026-05-01 11:23 39.11711 2.87516 26777 ft 464 kts 67°
2026-05-01 11:23 39.12967 2.91374 27097 ft 466 kts 67°
2026-05-01 11:23 39.14211 2.95200 27410 ft 469 kts 67°
2026-05-01 11:24 39.15549 2.99063 27710 ft 471 kts 65°
2026-05-01 11:24 39.17003 3.02869 28009 ft 474 kts 63°
2026-05-01 11:24 39.20096 3.10369 28567 ft 479 kts 61°
2026-05-01 11:25 39.21673 3.14166 28850 ft 482 kts 62°
2026-05-01 11:25 39.24791 3.21886 29373 ft 486 kts 63°
2026-05-01 11:25 39.26329 3.25788 29647 ft 489 kts 63°
2026-05-01 11:26 39.27866 3.29725 29906 ft 491 kts 63°
2026-05-01 11:26 39.30928 3.37588 30546 ft 492 kts 63°
2026-05-01 11:26 39.32469 3.41536 30914 ft 490 kts 63°
2026-05-01 11:27 39.34007 3.45473 31272 ft 488 kts 63°
2026-05-01 11:27 39.35539 3.49383 31637 ft 487 kts 63°
2026-05-01 11:27 39.37053 3.53246 32007 ft 486 kts 63°
2026-05-01 11:27 39.38580 3.57141 32370 ft 485 kts 63°
2026-05-01 11:28 39.40103 3.61036 32727 ft 484 kts 63°
2026-05-01 11:28 39.41622 3.64933 33106 ft 483 kts 63°
2026-05-01 11:28 39.43128 3.68809 33482 ft 481 kts 63°
2026-05-01 11:29 39.46124 3.76539 34232 ft 479 kts 64°
2026-05-01 11:29 39.47597 3.80346 34556 ft 478 kts 64°
2026-05-01 11:29 39.50569 3.88039 35175 ft 477 kts 63°
2026-05-01 11:30 39.52060 3.91905 35515 ft 476 kts 63°
2026-05-01 11:30 39.53536 3.95737 35870 ft 475 kts 63°
2026-05-01 11:30 39.54994 3.99519 36144 ft 475 kts 63°
2026-05-01 11:31 39.57960 4.07114 36213 ft 469 kts 59°
2026-05-01 11:31 39.59839 4.10578 36215 ft 468 kts 48°
2026-05-01 11:31 39.62156 4.13532 36218 ft 466 kts 37°
2026-05-01 11:32 39.67733 4.17590 36219 ft 462 kts 17°
2026-05-01 11:32 39.74017 4.19225 36226 ft 460 kts
2026-05-01 11:33 39.80328 4.20442 36218 ft 459 kts
2026-05-01 11:33 39.86648 4.21681 36225 ft 459 kts
2026-05-01 11:34 39.92941 4.23072 36229 ft 459 kts
2026-05-01 11:34 39.99193 4.24601 36230 ft 459 kts
2026-05-01 11:35 40.05501 4.26133 36232 ft 459 kts
2026-05-01 11:35 40.11759 4.27605 36236 ft 459 kts
2026-05-01 11:36 40.18052 4.29067 36233 ft 458 kts
2026-05-01 11:36 40.24341 4.30546 36238 ft 458 kts
2026-05-01 11:37 40.30590 4.32035 36240 ft 458 kts
2026-05-01 11:37 40.36888 4.33544 36239 ft 458 kts
2026-05-01 11:38 40.43135 4.35025 36247 ft 458 kts
2026-05-01 11:38 40.49392 4.36508 36244 ft 458 kts
2026-05-01 11:39 40.55663 4.38009 36243 ft 458 kts
2026-05-01 11:39 40.61946 4.39505 36238 ft 458 kts
2026-05-01 11:40 40.68232 4.41001 36241 ft 458 kts
2026-05-01 11:40 40.74516 4.42517 36240 ft 458 kts
2026-05-01 11:41 40.80765 4.44029 36238 ft 458 kts
2026-05-01 11:41 40.87055 4.45546 36245 ft 458 kts
2026-05-01 11:42 40.93302 4.47049 36244 ft 458 kts
2026-05-01 11:42 40.99600 4.48574 36244 ft 458 kts
2026-05-01 11:43 41.05872 4.50107 36253 ft 458 kts
2026-05-01 11:43 41.12108 4.51620 36250 ft 458 kts
2026-05-01 11:44 41.21531 4.53908 36246 ft 458 kts
2026-05-01 11:44 41.27765 4.55440 36250 ft 458 kts
2026-05-01 11:45 41.34032 4.56977 36247 ft 458 kts
2026-05-01 11:45 41.40311 4.58509 36256 ft 457 kts
2026-05-01 11:46 41.46525 4.60040 36263 ft 456 kts
2026-05-01 11:46 41.52759 4.61583 36268 ft 455 kts
2026-05-01 11:47 41.58993 4.63114 36265 ft 455 kts
2026-05-01 11:47 41.65226 4.64649 36264 ft 455 kts
2026-05-01 11:48 41.71413 4.66186 36272 ft 454 kts
2026-05-01 11:48 41.77546 4.68319 36271 ft 456 kts 13°
2026-05-01 11:49 41.82608 4.70327 36268 ft 456 kts 13°
2026-05-01 11:49 41.88697 4.72737 36276 ft 456 kts 13°
2026-05-01 11:50 41.94793 4.75159 36279 ft 456 kts 14°
2026-05-01 11:50 42.00848 4.77562 36278 ft 456 kts 13°
2026-05-01 11:51 42.06939 4.79979 36282 ft 455 kts 13°
2026-05-01 11:51 42.13017 4.82413 36285 ft 455 kts 13°
2026-05-01 11:52 42.19102 4.84855 36292 ft 455 kts 13°
2026-05-01 11:52 42.25132 4.87270 36283 ft 454 kts 13°
2026-05-01 11:53 42.31207 4.89705 36290 ft 454 kts 13°
2026-05-01 11:53 42.37232 4.92130 36295 ft 455 kts 13°
2026-05-01 11:54 42.43300 4.94580 36281 ft 455 kts 13°
2026-05-01 11:54 42.49371 4.97038 36295 ft 455 kts 13°
2026-05-01 11:55 42.55430 4.99502 36301 ft 454 kts 14°
2026-05-01 11:55 42.61499 5.01937 36308 ft 453 kts 13°
2026-05-01 11:56 42.67508 5.04295 36308 ft 452 kts 13°
2026-05-01 11:56 42.73563 5.06675 36295 ft 452 kts 14°
2026-05-01 11:57 42.79559 5.09375 36296 ft 455 kts 23°
2026-05-01 11:57 42.84802 5.14258 36294 ft 461 kts 42°
2026-05-01 11:58 42.89591 5.19888 36295 ft 455 kts 27°
2026-05-01 11:59 42.97891 5.26291 36289 ft 456 kts 27°
2026-05-01 11:59 43.03344 5.30654 36288 ft 457 kts 28°
2026-05-01 12:00 43.11527 5.37350 36301 ft 456 kts 28°
2026-05-01 12:01 43.19714 5.44024 36294 ft 455 kts 28°
2026-05-01 12:01 43.25118 5.48427 36294 ft 455 kts 28°
2026-05-01 12:02 43.30579 5.52893 36295 ft 455 kts 28°
2026-05-01 12:02 43.35997 5.57341 36295 ft 455 kts 28°
2026-05-01 12:03 43.41434 5.61818 36298 ft 455 kts 28°
2026-05-01 12:03 43.46869 5.66300 36300 ft 454 kts 28°
2026-05-01 12:04 43.52300 5.70776 36305 ft 454 kts 28°
2026-05-01 12:04 43.57695 5.75241 36309 ft 453 kts 28°
2026-05-01 12:05 43.63101 5.79726 36309 ft 452 kts 28°
2026-05-01 12:05 43.71176 5.86437 36310 ft 451 kts 28°
2026-05-01 12:06 43.76524 5.90893 36303 ft 451 kts 28°
2026-05-01 12:06 43.81904 5.95385 36303 ft 451 kts 28°
2026-05-01 12:07 43.87280 5.99877 36309 ft 451 kts 28°
2026-05-01 12:07 43.92634 6.04371 36306 ft 451 kts 28°
2026-05-01 12:08 43.98001 6.08880 36307 ft 451 kts 28°
2026-05-01 12:08 44.03359 6.13392 36313 ft 449 kts 28°
2026-05-01 12:09 44.08704 6.17910 36314 ft 448 kts 28°
2026-05-01 12:09 44.14028 6.22419 36310 ft 448 kts 28°
2026-05-01 12:10 44.21979 6.29157 36304 ft 447 kts 28°
2026-05-01 12:11 44.29969 6.35960 36301 ft 447 kts 28°
2026-05-01 12:11 44.35248 6.40466 36296 ft 447 kts 28°
2026-05-01 12:12 44.40566 6.45002 36289 ft 447 kts 28°
2026-05-01 12:12 44.45883 6.49555 36299 ft 447 kts 29°
2026-05-01 12:13 44.51181 6.54114 36300 ft 445 kts 29°
2026-05-01 12:13 44.56431 6.58627 36307 ft 445 kts 29°
2026-05-01 12:14 44.61704 6.63165 36303 ft 444 kts 29°
2026-05-01 12:14 44.66974 6.67720 36306 ft 444 kts 29°
2026-05-01 12:15 44.72242 6.72299 36329 ft 445 kts 29°
2026-05-01 12:15 44.77574 6.76580 36321 ft 441 kts 20°
2026-05-01 12:16 44.83469 6.78621 36308 ft 435 kts
2026-05-01 12:16 44.89516 6.78410 36309 ft 435 kts 355°
2026-05-01 12:17 44.95567 6.78008 36320 ft 435 kts 355°
2026-05-01 12:17 44.98595 6.77812 36544 ft 434 kts 355°
2026-05-01 12:17 45.01621 6.77616 36806 ft 434 kts 355°
2026-05-01 12:18 45.04605 6.77421 37074 ft 435 kts 355°
2026-05-01 12:18 45.07636 6.77221 37277 ft 436 kts 355°
2026-05-01 12:18 45.13695 6.76824 37306 ft 435 kts 355°
2026-05-01 12:19 45.19740 6.76422 37309 ft 435 kts 355°
2026-05-01 12:19 45.25814 6.76014 37310 ft 438 kts 355°
2026-05-01 12:20 45.31877 6.75613 37311 ft 438 kts 355°
2026-05-01 12:20 45.37968 6.75207 37307 ft 438 kts 355°
2026-05-01 12:21 45.44076 6.74795 37300 ft 439 kts 356°
2026-05-01 12:21 45.50193 6.74381 37296 ft 439 kts 356°
2026-05-01 12:22 45.56266 6.73969 37300 ft 440 kts 356°
2026-05-01 12:22 45.62393 6.73543 37292 ft 440 kts 356°
2026-05-01 12:23 45.68529 6.73123 37285 ft 441 kts 356°
2026-05-01 12:23 45.74677 6.72697 37284 ft 442 kts 356°
2026-05-01 12:24 45.80789 6.72277 37285 ft 442 kts 356°
2026-05-01 12:24 45.86948 6.71859 37280 ft 443 kts 356°
2026-05-01 12:25 45.96159 6.71238 37284 ft 443 kts 356°
2026-05-01 12:26 46.02342 6.70805 37279 ft 445 kts 356°
2026-05-01 12:26 46.11650 6.70053 37278 ft 445 kts 350°
2026-05-01 12:27 46.20488 6.66306 37271 ft 444 kts 340°